User: anonymous   Login
Location: Terra Rouge Observatory
(46.0000°N, 62.7500°W)
Time: 17:46:59
(UTC-03:00)
Language:

Landsat 5 - Orbit

View from above orbital plane
View from above orbital plane
View from above satellite
View from above satellite

Ground track
Ground track

The orbit data is extracted from the following two-line orbital elements,

1 14780U 84021A   16211.86080828 +.00000161 +00000-0 +21096-4 0  9996
2 14780 098.0263 311.9854 0092288 149.7835 210.8751 14.91193202252293
Epoch (UTC): 29 July 2016 20:39:33
Eccentricity: 0.0092288
inclination: 98.0263°
perigee height: 530 km
apogee height: 658 km
right ascension of ascending node: 311.9854°
argument of perigee: 149.7835°
revolutions per day: 14.91193202
mean anomaly at epoch: 210.8751°
orbit number at epoch: 25229

The dashed part of the orbit path shows where the satellite is in the earth's shadow,  

DLR